Weather in Kelmentsi

Ukraine / Chernovtci District     48°27′48″N   26°49′45″E
temp.,
°C
wind,
m/s
gust,
m/s
humid.,
%
clouds,
%
prec.,
mm/h
press.,
hPa
HPBL,
m
12 august, fri
fri1200:00+18n357899 0.0 1019127
03:00+17nnw2286100 0.1 101942
06:00+17nnw378716 0.0 1019200
09:00+18nnw468197 0.3 1019317
12:00+22n5675100 1.2 1018923
15:00+19nne4888100 3.3 1018247
18:00+22ne577635 1.1 1017596
21:00+18n359141 1.1 1017114
13 august, sat
sat1300:00+17n229445 0.0 101626
03:00+16nnw339474 0.0 101543
06:00+17nnw3692100 0.0 1014168
09:00+19n4686100 0.0 1014400
12:00+25n3462100 0.0 10121082
15:00+26nne4558100 1.6 10101299
18:00+26nnw3559100 0.0 1009192
21:00+22n4107371 0.0 1008257
14 august, sun
sun1400:00+21n3583100 0.8 1009145
03:00+18nnw3592100 0.9 100882
06:00+17n2391100 0.1 100846
09:00+21nnw4577100 0.1 1008383
12:00+20ne3483100 0.7 1009337
15:00+26n3455100 0.7 10081008
18:00+27ene454928 0.0 10071282
21:00+18s1191100 2.8 100826
15 august, mon
mon1500:00+17nne118933 0.8 100811
03:00+17n2290100 1.2 100715
06:00+17nne1183100 0.0 100711
09:00+20n1176100 1.0 1007143
12:00+25nw2153100 0.0 1007661
15:00+29wnw114486 0.0 10061196
18:00+29wsw124387 0.0 10051251
21:00+23w22625 0.0 100621
16 august, tue
tue1600:00+20wnw22744 0.0 100714
03:00+18nnw22822 1.2 100611
06:00+18w11815 0.0 100711
09:00+22w34695 0.0 1008279
12:00+27wnw12535 0.0 1007973
15:00+30w34395 0.0 10071977
18:00+31wsw24364 0.0 10062156
21:00+19sse338884 4.3 101071